[[{"header":{"parameterUnit":"m.s-1","parameterCategory":1,"la1":30.2992,"la2":30.254,"lo1":-89.0895,"lo2":-89.0443,"dy":0.0025,"dx":0.0025,"nx":19,"ny":19,"refTime":"2026-04-05T21:00:00:Z","depth":0,"parameterNumber":2,"parameterNumberName":"U-component_of_WINDS"},"data":[0,0,0,0.5112,0.5114,0.5193,0.5194,0.528,0.528,0,0,0,0,0,0,0,0,0,0,0,0.5079,0.508,0.5112,0.5114,0.5193,0.5194,0.5279,0.528,0,0,0,0,0,0,0,0,0,0,0,0.5079,0.508,0.508,0.5114,0.5193,0.5194,0.5279,0.5225,0,0,0,0,0,0,0,0,0,0,0.515,0.5111,0.508,0.508,0.5114,0.5193,0.5194,0.5222,0.5228,0.5237,0,0.5243,0,0.5263,0.5285,0.5285,0,0,0,0.512,0.5106,0.5136,0.508,0.5115,0.5193,0.5159,0.5226,0.5232,0.5244,0.5244,0.5248,0.5264,0.5285,0.5286,0.5318,0.5318,0,0,0.5116,0.5088,0.5132,0.514,0.5128,0.5157,0.5162,0.523,0.5227,0.5245,0.525,0.5266,0.5286,0.5286,0.5318,0.5318,0,0,0,0.5099,0.5085,0.5114,0.5136,0.5152,0.5159,0.5165,0.5224,0.5236,0.5251,0.5267,0.5286,0.5287,0.5318,0.5318,0.5284,0,0,0,0.5097,0.5075,0.5112,0.5096,0.515,0.5189,0.5157,0.5231,0.524,0.5266,0.5286,0.5288,0.5318,0.5318,0.5285,0.5271,0,0,0,0.5077,0.5073,0.5082,0.5094,0.5127,0.5189,0.5205,0.5234,0.5249,0.5285,0.5288,0.5319,0.5318,0.5286,0.5273,0.5272,0,0,0,0.5049,0.5049,0.5081,0.5088,0.5127,0.5168,0.5204,0.5236,0.5263,0.5287,0.5318,0.5318,0.5287,0.5275,0.5273,0.5264,0.5258,0,0,0.5034,0.5046,0.5053,0.5084,0.5112,0.5158,0.5182,0.5231,0.5259,0.5297,0.5298,0.5285,0.5274,0.5272,0.5238,0.5233,0,0,0,0.5039,0.5043,0.5057,0.5082,0.5122,0.5154,0.5204,0.5223,0.5256,0.5273,0.5285,0.5279,0.5279,0.5276,0.5272,0.5274,0.5316,0.5316,0.5316,0.4977,0.5015,0.5028,0.5076,0.51,0.5153,0.5175,0.521,0.5239,0.5242,0.5252,0.5227,0.5223,0.522,0.5221,0.5252,0.5252,0.5252,0.5252,0.4958,0.4969,0.5012,0.5039,0.5079,0.5103,0.5154,0.5175,0.5202,0.5222,0.5224,0.5241,0.5214,0.5216,0.525,0.525,0.525,0.525,0.5251,0.4919,0.4931,0.4956,0.4998,0.5026,0.5076,0.5101,0.5136,0.517,0.5172,0.5187,0.5187,0.5191,0.5177,0.5177,0.5177,0.5177,0.5177,0.5177,0.4868,0.4898,0.4915,0.496,0.4982,0.5015,0.507,0.5093,0.5127,0.515,0.5151,0.5179,0.5205,0.521,0.5175,0.5176,0.5176,0.5176,0.5176,0.4831,0.4846,0.4872,0.4894,0.4951,0.4976,0.5024,0.5067,0.5091,0.5102,0.5132,0.5146,0.516,0.5164,0.5168,0.5125,0.5125,0.5125,0.5125,0.4796,0.4809,0.4845,0.4878,0.4916,0.4962,0.499,0.5035,0.5082,0.5099,0.5111,0.5121,0.5123,0.5136,0.514,0.5144,0.5096,0.5096,0.5096,0.4775,0.4793,0.481,0.4859,0.4906,0.4946,0.4974,0.5011,0.5068,0.5096,0.5113,0.5114,0.513,0.5133,0.5157,0.5163,0.5171,0,0]},{"header":{"parameterUnit":"m.s-1","parameterCategory":1,"la1":30.2992,"la2":30.254,"lo1":-89.0895,"lo2":-89.0443,"dy":0.0025,"dx":0.0025,"nx":19,"ny":19,"refTime":"2026-04-05T21:00:00:Z","depth":0,"parameterNumber":3,"parameterNumberName":"V-component_of_WINDS"},"data":[0,0,0,-5.7837,-5.7834,-5.7666,-5.7665,-5.7467,-5.7466,0,0,0,0,0,0,0,0,0,0,0,-5.7908,-5.7908,-5.7837,-5.7833,-5.7666,-5.7665,-5.7468,-5.7466,0,0,0,0,0,0,0,0,0,0,0,-5.7908,-5.7908,-5.7907,-5.7833,-5.7666,-5.7665,-5.7468,-5.7586,0,0,0,0,0,0,0,0,0,0,-5.7745,-5.7835,-5.7908,-5.7907,-5.7832,-5.7666,-5.7664,-5.7591,-5.7578,-5.7555,0,-5.7549,0,-5.7505,-5.7455,-5.7454,0,0,0,-5.7814,-5.7846,-5.7782,-5.7907,-5.7831,-5.7666,-5.7736,-5.7584,-5.757,-5.7538,-5.7546,-5.7538,-5.7502,-5.7454,-5.7453,-5.7404,-5.7404,0,0,-5.7823,-5.7887,-5.7792,-5.7774,-5.7813,-5.7741,-5.7731,-5.7575,-5.7583,-5.7545,-5.7532,-5.7499,-5.7453,-5.7452,-5.7403,-5.7404,0,0,0,-5.7863,-5.7894,-5.7834,-5.7783,-5.7752,-5.7737,-5.7725,-5.759,-5.7565,-5.753,-5.7497,-5.7452,-5.745,-5.7402,-5.7403,-5.7502,0,0,0,-5.7868,-5.7917,-5.7839,-5.7876,-5.7756,-5.7671,-5.7744,-5.7576,-5.7557,-5.7498,-5.7452,-5.7448,-5.7401,-5.7403,-5.7498,-5.7536,0,0,0,-5.7911,-5.7922,-5.7907,-5.7879,-5.7811,-5.7672,-5.7638,-5.7571,-5.7537,-5.7454,-5.7448,-5.7401,-5.7403,-5.7494,-5.7529,-5.7541,0,0,0,-5.7973,-5.7992,-5.7909,-5.7915,-5.7813,-5.7739,-5.7639,-5.7577,-5.7518,-5.7451,-5.7402,-5.7403,-5.7492,-5.7525,-5.7538,-5.7563,-5.7581,0,0,-5.8031,-5.8001,-5.7999,-5.7921,-5.7879,-5.7759,-5.7726,-5.7607,-5.7534,-5.7448,-5.7446,-5.7499,-5.7529,-5.754,-5.7658,-5.7673,0,0,0,-5.8039,-5.8039,-5.8014,-5.7966,-5.7882,-5.7809,-5.769,-5.7644,-5.757,-5.7508,-5.7505,-5.752,-5.7524,-5.7533,-5.7545,-5.7543,-5.7411,-5.7411,-5.741,-5.8209,-5.8125,-5.8116,-5.8011,-5.7964,-5.7843,-5.7793,-5.7709,-5.7632,-5.7632,-5.7606,-5.7689,-5.7702,-5.7711,-5.771,-5.7613,-5.7613,-5.7614,-5.7614,-5.8285,-5.827,-5.8173,-5.8129,-5.8036,-5.7993,-5.7873,-5.782,-5.776,-5.7702,-5.7701,-5.7644,-5.773,-5.7723,-5.762,-5.7619,-5.7618,-5.7618,-5.7617,-5.8386,-5.8364,-5.8316,-5.8238,-5.8184,-5.8072,-5.8023,-5.7936,-5.7853,-5.7853,-5.7813,-5.7811,-5.7796,-5.7841,-5.7841,-5.7842,-5.7842,-5.7842,-5.7842,-5.851,-5.8452,-5.8427,-5.834,-5.8297,-5.8229,-5.8105,-5.8056,-5.7979,-5.7919,-5.7918,-5.7838,-5.7757,-5.7738,-5.7846,-5.7845,-5.7845,-5.7844,-5.7844,-5.8615,-5.8579,-5.854,-5.8498,-5.8387,-5.8337,-5.823,-5.8138,-5.8084,-5.8061,-5.798,-5.7937,-5.7895,-5.7885,-5.7868,-5.8003,-5.8003,-5.8003,-5.8003,-5.87,-5.8674,-5.8614,-5.8552,-5.8481,-5.8381,-5.8328,-5.8229,-5.8119,-5.8078,-5.8046,-5.8016,-5.801,-5.7972,-5.7959,-5.7942,-5.8093,-5.8093,-5.8093,-5.8758,-5.8721,-5.87,-5.8603,-5.8509,-5.8427,-5.8374,-5.8297,-5.8163,-5.8095,-5.8043,-5.8039,-5.7991,-5.798,-5.7911,-5.7893,-5.7859,0,0]}]]